Location: Azul
(36.7830°S, 59.8500°W)
Time: 21:38:09
(UTC-03:00)

Oscar 11 - Visible Passes

Search period start: 23 October 2021 00:00
Search period end: 02 November 2021 00:00
Orbit: 612 x 625 km, 97.6° (Epoch: 23 October)

Date Brightness Start Highest point End Pass type
(mag) Time Alt. Az. Time Alt. Az. Time Alt. Az.
23 Oct 9.5 04:59:44 10° NE 05:03:27 27° ESE 05:07:12 10° SSE visible
24 Oct 8.6 05:16:06 10° NE 05:20:14 42° ESE 05:24:24 10° S visible
27 Oct 10.4 04:32:51 10° E 04:35:08 14° ESE 04:37:27 10° SE visible
28 Oct 10.0 04:48:33 10° ENE 04:51:51 21° ESE 04:55:10 10° SSE visible
29 Oct 9.2 05:04:42 10° NE 05:08:35 32° ESE 05:12:30 10° S visible
30 Oct 8.3 05:21:09 10° NNE 05:25:22 49° ESE 05:29:39 10° S visible
01 Nov 10.8 04:22:38 10° ESE 04:23:34 11° ESE 04:24:31 10° SE visible
